Time,TemperatureF,DewpointF,PressureIn,WindDirection,WindDirectionDegrees,WindSpeedMPH,WindSpeedGustMPH,Humidity,HourlyPrecipIn,Conditions,Clouds,dailyrainin,SoftwareType,DateUTC
2013-01-20 00:03:00,57.0,54.1,30.15,ESE,117,1.2,1.2,90,0.00,,---,0.00,VWS V14.01,2013-01-20 06:03:00,
2013-01-20 00:08:00,56.9,54.0,30.15,ESE,117,1.2,1.2,90,0.00,,---,0.00,VWS V14.01,2013-01-20 06:08:00,
2013-01-20 00:13:00,56.7,53.8,30.15,ESE,117,1.2,1.2,90,0.00,,---,0.00,VWS V14.01,2013-01-20 06:13:00,
2013-01-20 00:18:00,56.7,53.8,30.15,ESE,117,1.2,1.2,90,0.00,,---,0.00,VWS V14.01,2013-01-20 06:18:00,
2013-01-20 00:23:00,56.5,53.6,30.15,ESE,117,1.2,1.2,90,0.00,,---,0.00,VWS V14.01,2013-01-20 06:23:00,
2013-01-20 00:28:00,56.3,53.7,30.15,ESE,117,1.2,1.2,91,0.00,,---,0.00,VWS V14.01,2013-01-20 06:28:00,
2013-01-20 00:33:00,56.2,53.6,30.15,ESE,117,1.2,1.2,91,0.00,,---,0.00,VWS V14.01,2013-01-20 06:33:00,
2013-01-20 00:38:00,56.0,53.4,30.15,ESE,117,1.2,1.2,91,0.00,,---,0.00,VWS V14.01,2013-01-20 06:38:00,
2013-01-20 00:43:00,55.6,53.0,30.15,ESE,117,1.2,1.2,91,0.00,,---,0.00,VWS V14.01,2013-01-20 06:43:00,
2013-01-20 00:48:00,55.3,52.7,30.15,ESE,117,1.2,1.2,91,0.00,,---,0.00,VWS V14.01,2013-01-20 06:48:00,
2013-01-20 00:53:00,55.0,52.4,30.15,ESE,117,1.2,1.2,91,0.00,,---,0.00,VWS V14.01,2013-01-20 06:53:00,
2013-01-20 00:58:00,54.4,51.8,30.15,ESE,117,1.2,1.2,91,0.00,,---,0.00,VWS V14.01,2013-01-20 06:58:00,
2013-01-20 01:03:00,54.1,51.8,30.14,ESE,117,1.2,1.2,92,0.00,,---,0.00,VWS V14.01,2013-01-20 07:03:00,
2013-01-20 01:08:00,53.5,50.9,30.14,ESE,117,1.2,1.2,91,0.00,,---,0.00,VWS V14.01,2013-01-20 07:08:00,
2013-01-20 01:13:00,53.1,50.8,30.14,ESE,117,1.2,1.2,92,0.00,,---,0.00,VWS V14.01,2013-01-20 07:13:00,
2013-01-20 01:18:00,52.8,50.5,30.15,ESE,117,1.2,1.2,92,0.00,,---,0.00,VWS V14.01,2013-01-20 07:18:00,
2013-01-20 01:23:00,52.6,50.3,30.15,ESE,117,1.2,1.2,92,0.00,,---,0.00,VWS V14.01,2013-01-20 07:23:00,
2013-01-20 01:28:00,52.2,50.0,30.15,ESE,117,1.2,1.2,92,0.00,,---,0.00,VWS V14.01,2013-01-20 07:28:00,
2013-01-20 01:33:00,51.7,49.5,30.15,ESE,117,1.2,1.2,92,0.00,,---,0.00,VWS V14.01,2013-01-20 07:33:00,
2013-01-20 01:38:00,51.6,49.4,30.15,ESE,117,1.2,1.2,92,0.00,,---,0.00,VWS V14.01,2013-01-20 07:38:00,
2013-01-20 01:43:00,51.4,49.2,30.15,ESE,117,1.2,1.2,92,0.00,,---,0.00,VWS V14.01,2013-01-20 07:43:00,
2013-01-20 01:48:00,51.1,48.9,30.15,ESE,117,1.2,1.2,92,0.00,,---,0.00,VWS V14.01,2013-01-20 07:48:00,
2013-01-20 01:53:00,51.0,48.8,30.15,ESE,117,1.2,1.2,92,0.00,,---,0.00,VWS V14.01,2013-01-20 07:53:00,
2013-01-20 01:58:00,51.3,49.1,30.15,ESE,117,1.2,1.2,92,0.00,,---,0.00,VWS V14.01,2013-01-20 07:58:00,
2013-01-20 02:03:00,51.0,48.8,30.14,ESE,117,1.2,1.2,92,0.00,,---,0.00,VWS V14.01,2013-01-20 08:03:00,
2013-01-20 02:08:00,50.7,48.5,30.14,ESE,117,1.2,1.2,92,0.00,,---,0.00,VWS V14.01,2013-01-20 08:08:00,
2013-01-20 02:13:00,50.8,48.8,30.14,ESE,117,1.2,1.2,93,0.00,,---,0.00,VWS V14.01,2013-01-20 08:13:00,
2013-01-20 02:18:00,50.8,48.8,30.14,ESE,117,1.2,1.2,93,0.00,,---,0.00,VWS V14.01,2013-01-20 08:18:00,
2013-01-20 02:23:00,50.7,48.8,30.14,ESE,117,1.2,1.2,93,0.00,,---,0.00,VWS V14.01,2013-01-20 08:23:00,
2013-01-20 02:28:00,50.5,48.6,30.14,ESE,117,1.2,1.2,93,0.00,,---,0.00,VWS V14.01,2013-01-20 08:28:00,
2013-01-20 02:33:00,50.4,48.7,30.13,ESE,117,1.2,1.2,94,0.00,,---,0.00,VWS V14.01,2013-01-20 08:33:00,
2013-01-20 02:38:00,50.2,48.5,30.13,ESE,117,1.2,1.2,94,0.00,,---,0.00,VWS V14.01,2013-01-20 08:38:00,
2013-01-20 02:43:00,50.4,48.7,30.13,ESE,117,1.2,1.2,94,0.00,,---,0.00,VWS V14.01,2013-01-20 08:43:00,
2013-01-20 02:48:00,50.8,49.4,30.13,ESE,117,1.2,1.2,95,0.00,,---,0.00,VWS V14.01,2013-01-20 08:48:00,
2013-01-20 02:53:00,50.8,49.1,30.13,ESE,117,1.2,1.2,94,0.00,,---,0.00,VWS V14.01,2013-01-20 08:53:00,
2013-01-20 02:58:00,50.5,49.1,30.13,ESE,117,1.2,1.2,95,0.00,,---,0.00,VWS V14.01,2013-01-20 08:58:00,
2013-01-20 03:03:00,50.4,49.0,30.13,ESE,117,1.2,1.2,95,0.00,,---,0.00,VWS V14.01,2013-01-20 09:03:00,
2013-01-20 03:08:00,50.2,48.8,30.13,ESE,117,1.2,1.2,95,0.00,,---,0.00,VWS V14.01,2013-01-20 09:08:00,
2013-01-20 03:13:00,50.1,48.7,30.13,ESE,117,1.2,1.2,95,0.00,,---,0.00,VWS V14.01,2013-01-20 09:13:00,
2013-01-20 03:18:00,50.1,48.7,30.13,ESE,117,1.2,1.2,95,0.00,,---,0.00,VWS V14.01,2013-01-20 09:18:00,
2013-01-20 03:23:00,49.9,48.5,30.13,ESE,117,1.2,1.2,95,0.00,,---,0.00,VWS V14.01,2013-01-20 09:23:00,
2013-01-20 03:28:00,50.1,48.7,30.13,ESE,117,1.2,1.2,95,0.00,,---,0.00,VWS V14.01,2013-01-20 09:28:00,
2013-01-20 03:33:00,49.5,48.1,30.13,ESE,116,1.2,1.2,95,0.00,,---,0.00,VWS V14.01,2013-01-20 09:33:00,
2013-01-20 03:38:00,49.2,47.8,30.13,ESE,117,1.2,1.2,95,0.00,,---,0.00,VWS V14.01,2013-01-20 09:38:00,
2013-01-20 03:43:00,49.1,47.7,30.13,ESE,117,1.2,1.2,95,0.00,,---,0.00,VWS V14.01,2013-01-20 09:43:00,
2013-01-20 03:48:00,49.2,47.8,30.13,ESE,117,1.2,1.2,95,0.00,,---,0.00,VWS V14.01,2013-01-20 09:48:00,
2013-01-20 03:53:00,49.4,48.3,30.13,ESE,117,1.2,1.2,96,0.00,,---,0.00,VWS V14.01,2013-01-20 09:53:00,
2013-01-20 03:58:00,49.6,48.5,30.13,ESE,117,1.2,1.2,96,0.00,,---,0.00,VWS V14.01,2013-01-20 09:58:00,
2013-01-20 04:03:00,49.6,48.5,30.12,ESE,117,1.2,1.2,96,0.00,,---,0.00,VWS V14.01,2013-01-20 10:03:00,
2013-01-20 04:08:00,49.5,48.4,30.12,ESE,117,1.2,1.2,96,0.00,,---,0.00,VWS V14.01,2013-01-20 10:08:00,
2013-01-20 04:13:00,49.4,48.3,30.12,ESE,117,1.2,1.2,96,0.00,,---,0.00,VWS V14.01,2013-01-20 10:13:00,
2013-01-20 04:18:00,49.8,49.0,30.12,ESE,117,1.2,1.2,97,0.00,,---,0.00,VWS V14.01,2013-01-20 10:18:00,
2013-01-20 04:23:00,49.8,48.7,30.12,ESE,117,1.2,1.2,96,0.00,,---,0.00,VWS V14.01,2013-01-20 10:23:00,
2013-01-20 04:28:00,49.6,48.5,30.12,ESE,117,1.2,1.2,96,0.00,,---,0.00,VWS V14.01,2013-01-20 10:28:00,
2013-01-20 04:33:00,49.6,48.8,30.12,ESE,117,1.2,1.2,97,0.00,,---,0.00,VWS V14.01,2013-01-20 10:33:00,
2013-01-20 04:38:00,49.8,49.0,30.12,ESE,117,1.2,1.2,97,0.00,,---,0.00,VWS V14.01,2013-01-20 10:38:00,
2013-01-20 04:43:00,49.8,48.7,30.12,ESE,117,1.2,1.2,96,0.00,,---,0.00,VWS V14.01,2013-01-20 10:43:00,
2013-01-20 04:48:00,49.6,48.8,30.12,ESE,117,1.2,1.2,97,0.00,,---,0.00,VWS V14.01,2013-01-20 10:48:00,
2013-01-20 04:53:00,49.5,48.4,30.12,ESE,117,1.2,1.2,96,0.00,,---,0.00,VWS V14.01,2013-01-20 10:53:00,
2013-01-20 04:58:00,49.4,48.6,30.12,ESE,117,1.2,1.2,97,0.00,,---,0.00,VWS V14.01,2013-01-20 10:58:00,
2013-01-20 05:03:00,49.5,48.7,30.12,ESE,117,1.2,1.2,97,0.00,,---,0.00,VWS V14.01,2013-01-20 11:03:00,
2013-01-20 05:08:00,49.8,49.0,30.12,ESE,117,1.2,1.2,97,0.00,,---,0.00,VWS V14.01,2013-01-20 11:08:00,
2013-01-20 05:13:00,49.9,49.1,30.12,ESE,117,1.2,1.2,97,0.00,,---,0.00,VWS V14.01,2013-01-20 11:13:00,
2013-01-20 05:18:00,49.8,49.0,30.12,ESE,117,1.2,1.2,97,0.00,,---,0.00,VWS V14.01,2013-01-20 11:18:00,
2013-01-20 05:23:00,49.5,48.7,30.12,ESE,117,1.2,1.2,97,0.00,,---,0.00,VWS V14.01,2013-01-20 11:23:00,
2013-01-20 05:28:00,49.4,48.6,30.12,ESE,117,1.2,1.2,97,0.00,,---,0.00,VWS V14.01,2013-01-20 11:28:00,
2013-01-20 05:33:00,49.2,48.4,30.12,ESE,117,1.2,1.2,97,0.00,,---,0.00,VWS V14.01,2013-01-20 11:33:00,
2013-01-20 05:38:00,49.4,48.9,30.12,ESE,117,1.2,1.2,98,0.00,,---,0.00,VWS V14.01,2013-01-20 11:38:00,
2013-01-20 05:43:00,49.6,49.1,30.12,ESE,117,1.2,1.2,98,0.00,,---,0.00,VWS V14.01,2013-01-20 11:43:00,
2013-01-20 05:48:00,49.8,49.3,30.13,ESE,117,1.2,1.2,98,0.00,,---,0.00,VWS V14.01,2013-01-20 11:48:00,
2013-01-20 05:53:00,49.6,48.8,30.13,ESE,117,1.2,1.2,97,0.00,,---,0.00,VWS V14.01,2013-01-20 11:53:00,
2013-01-20 05:58:00,49.6,49.1,30.13,ESE,117,1.2,1.2,98,0.00,,---,0.00,VWS V14.01,2013-01-20 11:58:00,
2013-01-20 06:03:00,49.5,49.0,30.13,ESE,117,1.2,1.2,98,0.00,,---,0.00,VWS V14.01,2013-01-20 12:03:00,
2013-01-20 06:08:00,49.4,48.9,30.13,ESE,117,1.2,1.2,98,0.00,,---,0.00,VWS V14.01,2013-01-20 12:08:00,
2013-01-20 06:13:00,49.2,48.7,30.13,ESE,117,1.2,1.2,98,0.00,,---,0.00,VWS V14.01,2013-01-20 12:13:00,
2013-01-20 06:18:00,49.4,48.9,30.13,ESE,117,1.2,1.2,98,0.00,,---,0.00,VWS V14.01,2013-01-20 12:18:00,
2013-01-20 06:23:00,49.4,48.9,30.13,ESE,117,1.2,1.2,98,0.00,,---,0.00,VWS V14.01,2013-01-20 12:23:00,
2013-01-20 06:28:00,49.8,49.5,30.13,ESE,117,1.2,1.2,99,0.00,,---,0.00,VWS V14.01,2013-01-20 12:28:00,
2013-01-20 06:33:00,50.1,49.6,30.14,ESE,117,1.2,1.2,98,0.00,,---,0.00,VWS V14.01,2013-01-20 12:33:00,
2013-01-20 06:38:00,49.8,49.3,30.14,ESE,117,1.2,1.2,98,0.00,,---,0.00,VWS V14.01,2013-01-20 12:38:00,
2013-01-20 06:43:00,49.8,49.3,30.14,ESE,117,1.2,1.2,98,0.00,,---,0.00,VWS V14.01,2013-01-20 12:43:00,
2013-01-20 06:48:00,50.1,49.6,30.14,ESE,117,1.2,1.2,98,0.00,,---,0.00,VWS V14.01,2013-01-20 12:48:00,
2013-01-20 06:53:00,50.1,49.6,30.14,ESE,117,1.2,1.2,98,0.00,,---,0.00,VWS V14.01,2013-01-20 12:53:00,
2013-01-20 06:58:00,50.5,50.2,30.14,ESE,117,1.2,1.2,99,0.00,,---,0.00,VWS V14.01,2013-01-20 12:58:00,
2013-01-20 07:03:00,50.8,50.5,30.14,ESE,117,1.2,1.2,99,0.00,,---,0.00,VWS V14.01,2013-01-20 13:03:00,
2013-01-20 07:08:00,51.4,51.1,30.14,ESE,117,1.2,1.2,99,0.00,,---,0.00,VWS V14.01,2013-01-20 13:08:00,
2013-01-20 07:13:00,51.6,51.3,30.14,ESE,117,1.2,1.2,99,0.00,,---,0.00,VWS V14.01,2013-01-20 13:13:00,
2013-01-20 07:18:00,51.4,50.9,30.15,ESE,116,1.2,1.2,98,0.00,,---,0.00,VWS V14.01,2013-01-20 13:18:00,
2013-01-20 07:23:00,51.0,50.5,30.15,ESE,117,1.2,1.2,98,0.00,,---,0.00,VWS V14.01,2013-01-20 13:23:00,
2013-01-20 07:28:00,51.0,50.5,30.15,ESE,117,1.2,1.2,98,0.00,,---,0.00,VWS V14.01,2013-01-20 13:28:00,
2013-01-20 07:33:00,50.7,50.2,30.15,ESE,117,1.2,1.2,98,0.00,,---,0.00,VWS V14.01,2013-01-20 13:33:00,
2013-01-20 07:38:00,50.7,50.2,30.15,ESE,117,1.2,1.2,98,0.00,,---,0.00,VWS V14.01,2013-01-20 13:38:00,
2013-01-20 07:43:00,50.7,50.2,30.15,ESE,117,1.2,1.2,98,0.00,,---,0.00,VWS V14.01,2013-01-20 13:43:00,
2013-01-20 07:48:00,50.5,50.0,30.15,ESE,117,1.2,1.2,98,0.00,,---,0.00,VWS V14.01,2013-01-20 13:48:00,
2013-01-20 07:53:00,50.2,49.7,30.15,ESE,117,1.2,1.2,98,0.00,,---,0.00,VWS V14.01,2013-01-20 13:53:00,
2013-01-20 07:58:00,49.9,49.4,30.15,ESE,117,1.2,1.2,98,0.00,,---,0.00,VWS V14.01,2013-01-20 13:58:00,
2013-01-20 08:03:00,49.8,49.3,30.16,ESE,117,1.2,1.2,98,0.00,,---,0.00,VWS V14.01,2013-01-20 14:03:00,
2013-01-20 08:08:00,49.9,49.6,30.16,ESE,117,1.2,1.2,99,0.00,,---,0.00,VWS V14.01,2013-01-20 14:08:00,
2013-01-20 08:13:00,50.4,50.1,30.16,ESE,117,1.2,1.2,99,0.00,,---,0.00,VWS V14.01,2013-01-20 14:13:00,
2013-01-20 08:18:00,51.1,50.8,30.16,ESE,117,1.2,1.2,99,0.00,,---,0.00,VWS V14.01,2013-01-20 14:18:00,
2013-01-20 08:23:00,51.9,51.6,30.16,ESE,117,1.2,1.2,99,0.00,,---,0.00,VWS V14.01,2013-01-20 14:23:00,
2013-01-20 08:28:00,52.9,52.6,30.16,ESE,117,1.2,1.2,99,0.00,,---,0.00,VWS V14.01,2013-01-20 14:28:00,
2013-01-20 08:33:00,54.4,54.4,30.17,ESE,117,1.2,1.2,100,0.00,,---,0.00,VWS V14.01,2013-01-20 14:33:00,
2013-01-20 08:38:00,55.4,55.4,30.17,ESE,117,1.2,1.2,100,0.00,,---,0.00,VWS V14.01,2013-01-20 14:38:00,
2013-01-20 08:43:00,56.3,56.0,30.17,ESE,117,1.2,2.2,99,0.00,,---,0.00,VWS V14.01,2013-01-20 14:43:00,
2013-01-20 08:48:00,56.9,56.6,30.18,ESE,117,2.2,4.2,99,0.00,,---,0.00,VWS V14.01,2013-01-20 14:48:00,
2013-01-20 08:53:00,57.5,57.2,30.18,ESE,117,1.2,3.2,99,0.00,,---,0.00,VWS V14.01,2013-01-20 14:53:00,
2013-01-20 08:58:00,58.3,58.0,30.18,ESE,117,1.2,2.2,99,0.00,,---,0.00,VWS V14.01,2013-01-20 14:58:00,
2013-01-20 09:03:00,58.7,58.1,30.18,ESE,117,2.2,3.2,98,0.00,,---,0.00,VWS V14.01,2013-01-20 15:03:00,
2013-01-20 09:08:00,59.2,58.6,30.18,ESE,117,4.2,4.2,98,0.00,,---,0.00,VWS V14.01,2013-01-20 15:08:00,
2013-01-20 09:13:00,59.8,59.0,30.18,ESE,116,2.2,2.2,97,0.00,,---,0.00,VWS V14.01,2013-01-20 15:13:00,
2013-01-20 09:18:00,60.4,59.3,30.18,ESE,117,1.2,3.2,96,0.00,,---,0.00,VWS V14.01,2013-01-20 15:18:00,
2013-01-20 09:23:00,61.0,59.6,30.18,ESE,117,1.2,3.2,95,0.00,,---,0.00,VWS V14.01,2013-01-20 15:23:00,
2013-01-20 09:28:00,61.3,59.6,30.18,ESE,116,2.2,4.2,94,0.00,,---,0.00,VWS V14.01,2013-01-20 15:28:00,
2013-01-20 09:33:00,61.8,59.2,30.18,ESE,116,1.2,4.2,91,0.00,,---,0.00,VWS V14.01,2013-01-20 15:33:00,
2013-01-20 09:38:00,62.4,59.1,30.18,ESE,116,3.2,3.2,89,0.00,,---,0.00,VWS V14.01,2013-01-20 15:38:00,
2013-01-20 09:43:00,63.4,58.8,30.18,ESE,116,2.2,4.2,85,0.00,,---,0.00,VWS V14.01,2013-01-20 15:43:00,
2013-01-20 09:48:00,63.5,57.9,30.18,ESE,102,1.2,3.2,82,0.00,,---,0.00,VWS V14.01,2013-01-20 15:48:00,
2013-01-20 09:52:00,64.0,58.1,30.18,ESE,102,2.2,4.2,81,0.00,,---,0.00,VWS V14.01,2013-01-20 15:52:00,
2013-01-20 09:57:00,64.8,57.1,30.18,ESE,102,1.2,3.2,76,0.00,,---,0.00,VWS V14.01,2013-01-20 15:57:00,
2013-01-20 10:02:00,65.2,56.3,30.19,ESE,102,1.2,4.2,73,0.00,,---,0.00,VWS V14.01,2013-01-20 16:02:00,
2013-01-20 10:07:00,66.0,57.1,30.19,ESE,102,1.2,4.2,73,0.00,,---,0.00,VWS V14.01,2013-01-20 16:07:00,
2013-01-20 10:12:00,66.3,56.6,30.19,ESE,102,1.2,4.2,71,0.00,,---,0.00,VWS V14.01,2013-01-20 16:12:00,
2013-01-20 10:17:00,66.8,56.7,30.18,ESE,102,3.2,4.2,70,0.00,,---,0.00,VWS V14.01,2013-01-20 16:17:00,
2013-01-20 10:22:00,66.4,56.7,30.18,East,86,4.2,5.2,71,0.00,,---,0.00,VWS V14.01,2013-01-20 16:22:00,
2013-01-20 10:27:00,66.1,57.2,30.18,East,86,3.2,4.2,73,0.00,,---,0.00,VWS V14.01,2013-01-20 16:27:00,
2013-01-20 10:32:00,66.9,57.6,30.19,East,87,4.2,5.2,72,0.00,,---,0.00,VWS V14.01,2013-01-20 16:32:00,
2013-01-20 10:37:00,67.1,57.4,30.19,East,87,2.2,5.2,71,0.00,,---,0.00,VWS V14.01,2013-01-20 16:37:00,
2013-01-20 10:42:00,67.4,58.1,30.19,East,87,4.2,4.2,72,0.00,,---,0.00,VWS V14.01,2013-01-20 16:42:00,
2013-01-20 10:47:00,67.8,57.7,30.19,East,86,4.2,6.2,70,0.00,,---,0.00,VWS V14.01,2013-01-20 16:47:00,
2013-01-20 10:52:00,67.1,57.4,30.19,ENE,67,5.2,7.2,71,0.00,,---,0.00,VWS V14.01,2013-01-20 16:52:00,
2013-01-20 10:57:00,67.3,58.0,30.19,ENE,73,5.2,5.2,72,0.00,,---,0.00,VWS V14.01,2013-01-20 16:57:00,
2013-01-20 11:02:00,66.8,57.5,30.18,NE,52,5.2,7.2,72,0.00,,---,0.00,VWS V14.01,2013-01-20 17:02:00,
2013-01-20 11:07:00,66.8,57.9,30.18,ENE,78,5.2,6.2,73,0.00,,---,0.00,VWS V14.01,2013-01-20 17:07:00,
2013-01-20 11:12:00,67.8,58.5,30.18,ENE,77,4.2,7.2,72,0.00,,---,0.00,VWS V14.01,2013-01-20 17:12:00,
2013-01-20 11:17:00,67.9,58.2,30.18,ENE,66,6.2,6.2,71,0.00,,---,0.00,VWS V14.01,2013-01-20 17:17:00,
2013-01-20 11:22:00,67.9,58.2,30.18,ENE,67,5.2,6.2,71,0.00,,---,0.00,VWS V14.01,2013-01-20 17:22:00,
2013-01-20 11:27:00,67.6,57.9,30.18,NE,52,3.2,8.2,71,0.00,,---,0.00,VWS V14.01,2013-01-20 17:27:00,
2013-01-20 11:32:00,68.1,58.3,30.17,East,80,5.2,7.2,71,0.00,,---,0.00,VWS V14.01,2013-01-20 17:32:00,
2013-01-20 11:37:00,68.1,58.7,30.17,East,80,6.2,6.2,72,0.00,,---,0.00,VWS V14.01,2013-01-20 17:37:00,
2013-01-20 11:42:00,68.3,58.5,30.17,East,90,5.2,7.2,71,0.00,,---,0.00,VWS V14.01,2013-01-20 17:42:00,
2013-01-20 11:47:00,68.9,58.7,30.16,ENE,63,6.2,7.2,70,0.00,,---,0.00,VWS V14.01,2013-01-20 17:47:00,
2013-01-20 11:52:00,69.1,58.9,30.16,East,79,5.2,7.2,70,0.00,,---,0.00,VWS V14.01,2013-01-20 17:52:00,
2013-01-20 11:57:00,68.9,58.7,30.16,East,88,5.2,7.2,70,0.00,,---,0.00,VWS V14.01,2013-01-20 17:57:00,
2013-01-20 12:02:00,69.6,59.4,30.15,East,96,5.2,7.2,70,0.00,,---,0.00,VWS V14.01,2013-01-20 18:02:00,
2013-01-20 12:07:00,69.6,59.0,30.15,ENE,69,3.2,7.2,69,0.00,,---,0.00,VWS V14.01,2013-01-20 18:07:00,
2013-01-20 12:12:00,69.3,58.7,30.15,ESE,105,5.2,7.2,69,0.00,,---,0.00,VWS V14.01,2013-01-20 18:12:00,
2013-01-20 12:17:00,69.4,58.4,30.14,East,90,4.2,8.2,68,0.00,,---,0.00,VWS V14.01,2013-01-20 18:17:00,
2013-01-20 12:22:00,70.1,59.1,30.14,ESE,109,4.2,8.2,68,0.00,,---,0.00,VWS V14.01,2013-01-20 18:22:00,
2013-01-20 12:27:00,69.9,58.5,30.14,East,86,5.2,8.2,67,0.00,,---,0.00,VWS V14.01,2013-01-20 18:27:00,
2013-01-20 12:32:00,70.1,59.1,30.13,ESE,115,9.2,9.2,68,0.00,,---,0.00,VWS V14.01,2013-01-20 18:32:00,
2013-01-20 12:37:00,70.6,59.1,30.13,SE,127,3.2,5.2,67,0.00,,---,0.00,VWS V14.01,2013-01-20 18:37:00,
2013-01-20 12:42:00,70.9,59.4,30.13,ESE,103,6.2,6.2,67,0.00,,---,0.00,VWS V14.01,2013-01-20 18:42:00,
2013-01-20 12:47:00,69.9,58.5,30.12,East,90,6.2,11.2,67,0.00,,---,0.00,VWS V14.01,2013-01-20 18:47:00,
2013-01-20 12:52:00,70.6,58.7,30.12,SE,134,2.2,7.2,66,0.00,,---,0.00,VWS V14.01,2013-01-20 18:52:00,
2013-01-20 12:57:00,70.6,58.3,30.12,SE,145,3.2,13.2,65,0.00,,---,0.00,VWS V14.01,2013-01-20 18:57:00,
2013-01-20 13:02:00,70.9,58.1,30.11,ESE,111,7.2,11.2,64,0.00,,---,0.00,VWS V14.01,2013-01-20 19:02:00,
2013-01-20 13:07:00,70.6,59.1,30.11,East,96,5.2,7.2,67,0.00,,---,0.00,VWS V14.01,2013-01-20 19:07:00,
2013-01-20 13:12:00,70.1,58.7,30.11,ESE,107,4.2,8.2,67,0.00,,---,0.00,VWS V14.01,2013-01-20 19:12:00,
2013-01-20 13:17:00,70.4,58.5,30.10,East,96,6.2,10.2,66,0.00,,---,0.00,VWS V14.01,2013-01-20 19:17:00,
2013-01-20 13:22:00,69.9,58.0,30.10,East,94,7.2,8.2,66,0.00,,---,0.00,VWS V14.01,2013-01-20 19:22:00,
2013-01-20 13:27:00,69.9,58.0,30.10,ESE,119,8.2,10.2,66,0.00,,---,0.00,VWS V14.01,2013-01-20 19:27:00,
2013-01-20 13:32:00,69.9,58.5,30.09,SE,132,3.2,10.2,67,0.00,,---,0.00,VWS V14.01,2013-01-20 19:32:00,
2013-01-20 13:37:00,70.8,59.3,30.09,ESE,122,5.2,7.2,67,0.00,,---,0.00,VWS V14.01,2013-01-20 19:37:00,
2013-01-20 13:42:00,70.8,58.9,30.09,ESE,121,5.2,9.2,66,0.00,,---,0.00,VWS V14.01,2013-01-20 19:42:00,
2013-01-20 13:47:00,70.4,58.9,30.08,East,92,11.2,11.2,67,0.00,,---,0.00,VWS V14.01,2013-01-20 19:47:00,
2013-01-20 13:52:00,70.4,58.9,30.08,ESE,105,6.2,11.2,67,0.00,,---,0.00,VWS V14.01,2013-01-20 19:52:00,
2013-01-20 13:57:00,70.4,57.7,30.08,SE,134,6.2,12.2,64,0.00,,---,0.00,VWS V14.01,2013-01-20 19:57:00,
2013-01-20 14:02:00,70.1,58.7,30.07,SE,124,7.2,11.2,67,0.00,,---,0.00,VWS V14.01,2013-01-20 20:02:00,
2013-01-20 14:07:00,70.3,58.8,30.07,ESE,105,8.2,10.2,67,0.00,,---,0.00,VWS V14.01,2013-01-20 20:07:00,
2013-01-20 14:12:00,70.4,58.9,30.07,ESE,121,8.2,11.2,67,0.00,,---,0.00,VWS V14.01,2013-01-20 20:12:00,
2013-01-20 14:17:00,70.4,58.9,30.07,East,90,6.2,8.2,67,0.00,,---,0.00,VWS V14.01,2013-01-20 20:17:00,
2013-01-20 14:22:00,70.1,58.7,30.07,East,88,4.2,11.2,67,0.00,,---,0.00,VWS V14.01,2013-01-20 20:22:00,
2013-01-20 14:27:00,70.4,58.9,30.07,ESE,105,8.2,8.2,67,0.00,,---,0.00,VWS V14.01,2013-01-20 20:27:00,
2013-01-20 14:32:00,69.6,58.2,30.06,ESE,115,6.2,10.2,67,0.00,,---,0.00,VWS V14.01,2013-01-20 20:32:00,
2013-01-20 14:37:00,69.3,58.3,30.06,East,79,8.2,11.2,68,0.00,,---,0.00,VWS V14.01,2013-01-20 20:37:00,
2013-01-20 14:42:00,68.9,58.7,30.06,East,89,6.2,8.2,70,0.00,,---,0.00,VWS V14.01,2013-01-20 20:42:00,
2013-01-20 14:47:00,69.9,58.9,30.06,ESE,103,6.2,8.2,68,0.00,,---,0.00,VWS V14.01,2013-01-20 20:47:00,
2013-01-20 14:52:00,69.6,58.6,30.06,East,98,6.2,10.2,68,0.00,,---,0.00,VWS V14.01,2013-01-20 20:52:00,
2013-01-20 14:57:00,69.1,58.5,30.06,East,95,6.2,12.2,69,0.00,,---,0.00,VWS V14.01,2013-01-20 20:57:00,
2013-01-20 15:02:00,68.8,58.6,30.06,ESE,105,11.2,12.2,70,0.00,,---,0.00,VWS V14.01,2013-01-20 21:02:00,
2013-01-20 15:07:00,68.8,58.6,30.06,SE,130,7.2,9.2,70,0.00,,---,0.00,VWS V14.01,2013-01-20 21:07:00,
2013-01-20 15:12:00,69.1,58.9,30.06,East,90,4.2,8.2,70,0.00,,---,0.00,VWS V14.01,2013-01-20 21:12:00,
2013-01-20 15:17:00,69.1,58.9,30.05,East,101,4.2,6.2,70,0.00,,---,0.00,VWS V14.01,2013-01-20 21:17:00,
2013-01-20 15:22:00,69.6,59.0,30.05,East,90,5.2,8.2,69,0.00,,---,0.00,VWS V14.01,2013-01-20 21:22:00,
2013-01-20 15:27:00,69.6,58.6,30.05,ESE,105,10.2,12.2,68,0.00,,---,0.00,VWS V14.01,2013-01-20 21:27:00,
2013-01-20 15:32:00,69.4,58.4,30.05,ENE,68,5.2,11.2,68,0.00,,---,0.00,VWS V14.01,2013-01-20 21:32:00,
2013-01-20 15:37:00,68.3,58.5,30.05,ENE,78,7.2,9.2,71,0.00,,---,0.00,VWS V14.01,2013-01-20 21:37:00,
2013-01-20 15:43:00,68.1,58.3,30.05,ENE,77,8.2,11.2,71,0.00,,---,0.00,VWS V14.01,2013-01-20 21:43:00,
2013-01-20 15:48:00,67.8,58.5,30.06,East,88,6.2,12.2,72,0.00,,---,0.00,VWS V14.01,2013-01-20 21:48:00,
2013-01-20 15:53:00,67.8,58.5,30.06,East,101,8.2,10.2,72,0.00,,---,0.00,VWS V14.01,2013-01-20 21:53:00,
2013-01-20 15:58:00,67.6,58.3,30.06,ESE,105,10.2,12.2,72,0.00,,---,0.00,VWS V14.01,2013-01-20 21:58:00,
2013-01-20 16:03:00,66.6,58.1,30.06,East,82,6.2,10.2,74,0.00,,---,0.00,VWS V14.01,2013-01-20 22:03:00,
2013-01-20 16:08:00,66.9,58.3,30.06,ENE,69,8.2,9.2,74,0.00,,---,0.00,VWS V14.01,2013-01-20 22:08:00,
2013-01-20 16:12:00,66.6,58.1,30.06,East,96,7.2,11.2,74,0.00,,---,0.00,VWS V14.01,2013-01-20 22:12:00,
2013-01-20 16:18:00,66.1,58.0,30.05,East,96,6.2,8.2,75,0.00,,---,0.00,VWS V14.01,2013-01-20 22:18:00,
2013-01-20 16:23:00,66.0,58.2,30.05,East,84,3.2,10.2,76,0.00,,---,0.00,VWS V14.01,2013-01-20 22:23:00,
2013-01-20 16:28:00,66.3,58.5,30.05,ENE,61,5.2,12.2,76,0.00,,---,0.00,VWS V14.01,2013-01-20 22:28:00,
2013-01-20 16:33:00,66.3,58.5,30.05,East,82,5.2,11.2,76,0.00,,---,0.00,VWS V14.01,2013-01-20 22:33:00,
2013-01-20 16:38:00,65.8,58.4,30.05,ENE,74,3.2,10.2,77,0.00,,---,0.00,VWS V14.01,2013-01-20 22:38:00,
2013-01-20 16:43:00,65.6,58.2,30.05,East,82,8.2,11.2,77,0.00,,---,0.00,VWS V14.01,2013-01-20 22:43:00,
2013-01-20 16:48:00,65.5,58.1,30.05,East,91,6.2,10.2,77,0.00,,---,0.00,VWS V14.01,2013-01-20 22:48:00,
2013-01-20 16:53:00,65.6,58.2,30.05,ENE,73,5.2,11.2,77,0.00,,---,0.00,VWS V14.01,2013-01-20 22:53:00,
2013-01-20 16:58:00,65.5,58.5,30.05,ENE,61,6.2,11.2,78,0.00,,---,0.00,VWS V14.01,2013-01-20 22:58:00,
2013-01-20 17:03:00,65.2,57.8,30.06,ESE,103,5.2,11.2,77,0.00,,---,0.00,VWS V14.01,2013-01-20 23:03:00,
2013-01-20 17:08:00,65.0,58.0,30.06,ESE,105,5.2,9.2,78,0.00,,---,0.00,VWS V14.01,2013-01-20 23:08:00,
2013-01-20 17:13:00,64.8,57.8,30.06,ENE,76,3.2,7.2,78,0.00,,---,0.00,VWS V14.01,2013-01-20 23:13:00,
2013-01-20 17:18:00,64.5,57.8,30.05,East,93,6.2,7.2,79,0.00,,---,0.00,VWS V14.01,2013-01-20 23:18:00,
2013-01-20 17:23:00,64.3,58.0,30.05,ESE,105,6.2,7.2,80,0.00,,---,0.00,VWS V14.01,2013-01-20 23:23:00,
2013-01-20 17:28:00,64.5,58.2,30.05,ESE,104,5.2,7.2,80,0.00,,---,0.00,VWS V14.01,2013-01-20 23:28:00,
2013-01-20 17:33:00,64.3,58.0,30.05,ENE,63,4.2,8.2,80,0.00,,---,0.00,VWS V14.01,2013-01-20 23:33:00,
2013-01-20 17:38:00,64.0,58.1,30.05,East,91,4.2,7.2,81,0.00,,---,0.00,VWS V14.01,2013-01-20 23:38:00,
2013-01-20 17:43:00,63.7,58.1,30.05,ESE,115,6.2,7.2,82,0.00,,---,0.00,VWS V14.01,2013-01-20 23:43:00,
2013-01-20 17:48:00,63.4,57.8,30.05,East,100,7.2,7.2,82,0.00,,---,0.00,VWS V14.01,2013-01-20 23:48:00,
2013-01-20 17:53:00,63.1,57.5,30.05,East,83,6.2,7.2,82,0.00,,---,0.00,VWS V14.01,2013-01-20 23:53:00,
2013-01-20 17:58:00,62.7,57.5,30.05,East,90,6.2,7.2,83,0.00,,---,0.00,VWS V14.01,2013-01-20 23:58:00,
2013-01-20 18:03:00,62.6,57.7,30.05,East,84,3.2,6.2,84,0.00,,---,0.00,VWS V14.01,2013-01-21 00:03:00,
2013-01-20 18:08:00,62.4,57.5,30.05,East,86,3.2,9.2,84,0.00,,---,0.00,VWS V14.01,2013-01-21 00:08:00,
2013-01-20 18:13:00,62.3,57.4,30.05,East,84,5.2,8.2,84,0.00,,---,0.00,VWS V14.01,2013-01-21 00:13:00,
2013-01-20 18:18:00,62.1,57.2,30.06,East,96,6.2,7.2,84,0.00,,---,0.00,VWS V14.01,2013-01-21 00:18:00,
2013-01-20 18:23:00,62.0,57.1,30.06,East,88,4.2,7.2,84,0.00,,---,0.00,VWS V14.01,2013-01-21 00:23:00,
2013-01-20 18:28:00,62.0,57.1,30.06,ESE,102,2.2,7.2,84,0.00,,---,0.00,VWS V14.01,2013-01-21 00:28:00,
2013-01-20 18:33:00,61.8,57.2,30.06,East,99,4.2,6.2,85,0.00,,---,0.00,VWS V14.01,2013-01-21 00:33:00,
2013-01-20 18:38:00,61.8,57.2,30.06,East,96,2.2,5.2,85,0.00,,---,0.00,VWS V14.01,2013-01-21 00:38:00,
2013-01-20 18:43:00,61.6,57.4,30.06,East,80,5.2,6.2,86,0.00,,---,0.00,VWS V14.01,2013-01-21 00:43:00,
2013-01-20 18:48:00,61.5,57.0,30.06,ESE,105,4.2,6.2,85,0.00,,---,0.00,VWS V14.01,2013-01-21 00:48:00,
2013-01-20 18:53:00,61.5,57.0,30.06,ESE,103,5.2,8.2,85,0.00,,---,0.00,VWS V14.01,2013-01-21 00:53:00,
2013-01-20 18:58:00,61.3,56.8,30.06,East,98,4.2,7.2,85,0.00,,---,0.00,VWS V14.01,2013-01-21 00:58:00,
2013-01-20 19:03:00,61.2,56.7,30.07,East,84,4.2,6.2,85,0.00,,---,0.00,VWS V14.01,2013-01-21 01:03:00,
2013-01-20 19:08:00,61.2,56.7,30.07,East,85,3.2,8.2,85,0.00,,---,0.00,VWS V14.01,2013-01-21 01:08:00,
2013-01-20 19:13:00,61.0,57.7,30.07,East,93,3.2,6.2,89,0.00,,---,0.00,VWS V14.01,2013-01-21 01:13:00,
2013-01-20 19:18:00,60.9,56.4,30.07,East,80,3.2,6.2,85,0.00,,---,0.00,VWS V14.01,2013-01-21 01:18:00,
2013-01-20 19:23:00,60.9,56.4,30.07,East,94,4.2,7.2,85,0.00,,---,0.00,VWS V14.01,2013-01-21 01:23:00,
2013-01-20 19:28:00,60.9,56.4,30.07,East,90,3.2,6.2,85,0.00,,---,0.00,VWS V14.01,2013-01-21 01:28:00,
2013-01-20 19:33:00,60.9,56.4,30.07,East,84,3.2,7.2,85,0.00,,---,0.00,VWS V14.01,2013-01-21 01:33:00,
2013-01-20 19:38:00,60.9,56.4,30.07,East,95,3.2,6.2,85,0.00,,---,0.00,VWS V14.01,2013-01-21 01:38:00,
2013-01-20 19:43:00,60.9,56.4,30.07,East,99,4.2,8.2,85,0.00,,---,0.00,VWS V14.01,2013-01-21 01:43:00,
2013-01-20 19:48:00,60.9,56.4,30.07,ENE,75,4.2,6.2,85,0.00,,---,0.00,VWS V14.01,2013-01-21 01:48:00,
2013-01-20 19:53:00,60.9,56.4,30.07,East,90,3.2,6.2,85,0.00,,---,0.00,VWS V14.01,2013-01-21 01:53:00,
2013-01-20 19:58:00,60.9,56.4,30.07,East,90,3.2,5.2,85,0.00,,---,0.00,VWS V14.01,2013-01-21 01:58:00,
2013-01-20 20:03:00,60.9,56.4,30.07,ESE,111,5.2,7.2,85,0.00,,---,0.00,VWS V14.01,2013-01-21 02:03:00,
2013-01-20 20:08:00,60.7,56.2,30.07,East,84,1.2,8.2,85,0.00,,---,0.00,VWS V14.01,2013-01-21 02:08:00,
2013-01-20 20:13:00,60.7,55.8,30.07,East,98,5.2,9.2,84,0.00,,---,0.00,VWS V14.01,2013-01-21 02:13:00,
2013-01-20 20:18:00,60.7,55.8,30.07,East,88,6.2,6.2,84,0.00,,---,0.00,VWS V14.01,2013-01-21 02:18:00,
2013-01-20 20:23:00,60.7,55.8,30.07,ESE,107,5.2,8.2,84,0.00,,---,0.00,VWS V14.01,2013-01-21 02:23:00,
2013-01-20 20:28:00,60.7,55.8,30.07,ESE,113,4.2,6.2,84,0.00,,---,0.00,VWS V14.01,2013-01-21 02:28:00,
2013-01-20 20:30:00,60.5,56.3,30.07,East,101,4.2,7.2,86,0.00,,---,0.00,VWS V14.01,2013-01-21 02:30:00,
2013-01-20 20:33:00,60.7,55.8,30.07,ESE,105,4.2,8.2,84,0.00,,---,0.00,VWS V14.01,2013-01-21 02:33:00,
2013-01-20 20:35:00,60.5,56.3,30.07,East,99,3.2,6.2,86,0.00,,---,0.00,VWS V14.01,2013-01-21 02:35:00,
2013-01-20 20:38:00,60.7,55.8,30.07,East,101,5.2,6.2,84,0.00,,---,0.00,VWS V14.01,2013-01-21 02:38:00,
2013-01-20 20:40:00,60.5,56.3,30.07,East,101,4.2,7.2,86,0.00,,---,0.00,VWS V14.01,2013-01-21 02:40:00,
2013-01-20 20:43:00,60.7,55.8,30.07,East,100,6.2,7.2,84,0.00,,---,0.00,VWS V14.01,2013-01-21 02:43:00,
2013-01-20 20:45:00,60.5,56.3,30.08,ESE,103,2.2,6.2,86,0.00,,---,0.00,VWS V14.01,2013-01-21 02:45:00,
2013-01-20 20:48:00,60.7,55.8,30.07,ESE,105,3.2,7.2,84,0.00,,---,0.00,VWS V14.01,2013-01-21 02:48:00,
2013-01-20 20:50:00,60.5,56.3,30.08,ESE,103,1.2,5.2,86,0.00,,---,0.00,VWS V14.01,2013-01-21 02:50:00,
2013-01-20 20:53:00,60.9,56.4,30.07,ENE,76,5.2,7.2,85,0.00,,---,0.00,VWS V14.01,2013-01-21 02:53:00,
2013-01-20 20:55:00,60.4,56.5,30.08,East,97,3.2,5.2,87,0.00,,---,0.00,VWS V14.01,2013-01-21 02:55:00,
2013-01-20 20:58:00,60.7,56.2,30.07,East,96,7.2,7.2,85,0.00,,---,0.00,VWS V14.01,2013-01-21 02:58:00,
2013-01-20 21:00:00,60.4,56.5,30.07,East,88,6.2,7.2,87,0.00,,---,0.00,VWS V14.01,2013-01-21 03:00:00,
2013-01-20 21:03:00,60.7,56.2,30.07,ESE,106,6.2,7.2,85,0.00,,---,0.00,VWS V14.01,2013-01-21 03:03:00,
2013-01-20 21:05:00,60.4,56.5,30.07,ESE,103,5.2,7.2,87,0.00,,---,0.00,VWS V14.01,2013-01-21 03:05:00,
2013-01-20 21:08:00,60.7,56.2,30.07,ENE,74,4.2,9.2,85,0.00,,---,0.00,VWS V14.01,2013-01-21 03:08:00,
2013-01-20 21:10:00,60.4,56.5,30.07,East,93,3.2,6.2,87,0.00,,---,0.00,VWS V14.01,2013-01-21 03:10:00,
2013-01-20 21:13:00,60.7,56.5,30.07,ESE,105,5.2,7.2,86,0.00,,---,0.00,VWS V14.01,2013-01-21 03:13:00,
2013-01-20 21:15:00,60.4,56.5,30.08,East,94,4.2,5.2,87,0.00,,---,0.00,VWS V14.01,2013-01-21 03:15:00,
2013-01-20 21:18:00,60.7,56.5,30.07,ESE,103,6.2,7.2,86,0.00,,---,0.00,VWS V14.01,2013-01-21 03:18:00,
2013-01-20 21:20:00,60.2,56.3,30.08,East,80,5.2,6.2,87,0.00,,---,0.00,VWS V14.01,2013-01-21 03:20:00,
2013-01-20 21:23:00,60.7,56.5,30.07,ESE,107,5.2,6.2,86,0.00,,---,0.00,VWS V14.01,2013-01-21 03:23:00,
2013-01-20 21:25:00,60.1,56.2,30.08,East,89,5.2,10.2,87,0.00,,---,0.00,VWS V14.01,2013-01-21 03:25:00,
2013-01-20 21:28:00,60.5,56.3,30.07,East,101,5.2,6.2,86,0.00,,---,0.00,VWS V14.01,2013-01-21 03:28:00,
2013-01-20 21:30:00,60.2,56.3,30.08,ESE,105,7.2,8.2,87,0.00,,---,0.00,VWS V14.01,2013-01-21 03:30:00,
2013-01-20 21:33:00,60.5,56.3,30.07,East,93,5.2,6.2,86,0.00,,---,0.00,VWS V14.01,2013-01-21 03:33:00,
2013-01-20 21:35:00,60.2,56.3,30.08,East,96,3.2,7.2,87,0.00,,---,0.00,VWS V14.01,2013-01-21 03:35:00,
2013-01-20 21:38:00,60.5,56.3,30.07,East,99,4.2,5.2,86,0.00,,---,0.00,VWS V14.01,2013-01-21 03:38:00,
2013-01-20 21:40:00,60.1,56.2,30.08,East,95,3.2,6.2,87,0.00,,---,0.00,VWS V14.01,2013-01-21 03:40:00,
2013-01-20 21:43:00,60.5,56.3,30.07,ESE,103,3.2,6.2,86,0.00,,---,0.00,VWS V14.01,2013-01-21 03:43:00,
2013-01-20 21:45:00,60.1,56.2,30.08,East,94,3.2,5.2,87,0.00,,---,0.00,VWS V14.01,2013-01-21 03:45:00,
2013-01-20 21:48:00,60.5,56.3,30.08,ESE,103,1.2,5.2,86,0.00,,---,0.00,VWS V14.01,2013-01-21 03:48:00,
2013-01-20 21:50:00,59.9,56.0,30.08,East,97,2.2,6.2,87,0.00,,---,0.00,VWS V14.01,2013-01-21 03:50:00,
2013-01-20 21:53:00,60.5,56.3,30.08,ESE,103,2.2,4.2,86,0.00,,---,0.00,VWS V14.01,2013-01-21 03:53:00,
2013-01-20 21:55:00,59.9,56.3,30.08,East,98,4.2,5.2,88,0.00,,---,0.00,VWS V14.01,2013-01-21 03:55:00,
2013-01-20 21:58:00,60.4,56.5,30.08,ESE,109,4.2,5.2,87,0.00,,---,0.00,VWS V14.01,2013-01-21 03:58:00,
2013-01-20 22:00:00,59.8,56.2,30.08,East,98,2.2,6.2,88,0.00,,---,0.00,VWS V14.01,2013-01-21 04:00:00,
2013-01-20 22:03:00,60.4,56.5,30.07,East,88,4.2,7.2,87,0.00,,---,0.00,VWS V14.01,2013-01-21 04:03:00,
2013-01-20 22:05:00,59.8,56.2,30.08,East,98,1.2,4.2,88,0.00,,---,0.00,VWS V14.01,2013-01-21 04:05:00,
2013-01-20 22:08:00,60.4,56.5,30.07,East,95,1.2,6.2,87,0.00,,---,0.00,VWS V14.01,2013-01-21 04:08:00,
2013-01-20 22:10:00,59.6,56.0,30.08,East,98,3.2,5.2,88,0.00,,---,0.00,VWS V14.01,2013-01-21 04:10:00,
2013-01-20 22:13:00,60.4,56.5,30.07,East,92,5.2,5.2,87,0.00,,---,0.00,VWS V14.01,2013-01-21 04:13:00,
2013-01-20 22:15:00,59.6,56.0,30.08,East,98,3.2,5.2,88,0.00,,---,0.00,VWS V14.01,2013-01-21 04:15:00,
2013-01-20 22:18:00,60.2,56.3,30.08,ESE,104,3.2,6.2,87,0.00,,---,0.00,VWS V14.01,2013-01-21 04:18:00,
2013-01-20 22:20:00,59.6,55.7,30.08,East,98,5.2,5.2,87,0.00,,---,0.00,VWS V14.01,2013-01-21 04:20:00,
2013-01-20 22:23:00,60.2,56.3,30.08,East,81,3.2,6.2,87,0.00,,---,0.00,VWS V14.01,2013-01-21 04:23:00,
2013-01-20 22:25:00,59.6,55.7,30.08,ESE,113,4.2,6.2,87,0.00,,---,0.00,VWS V14.01,2013-01-21 04:25:00,
2013-01-20 22:28:00,60.2,56.3,30.08,ESE,106,5.2,8.2,87,0.00,,---,0.00,VWS V14.01,2013-01-21 04:28:00,
2013-01-20 22:30:00,59.8,55.9,30.08,ESE,112,4.2,5.2,87,0.00,,---,0.00,VWS V14.01,2013-01-21 04:30:00,
2013-01-20 22:33:00,60.2,56.3,30.08,East,85,2.2,7.2,87,0.00,,---,0.00,VWS V14.01,2013-01-21 04:33:00,
2013-01-20 22:35:00,59.8,55.6,30.08,East,101,4.2,4.2,86,0.00,,---,0.00,VWS V14.01,2013-01-21 04:35:00,
2013-01-20 22:38:00,60.2,56.3,30.08,East,94,3.2,6.2,87,0.00,,---,0.00,VWS V14.01,2013-01-21 04:38:00,
2013-01-20 22:40:00,59.8,55.6,30.08,East,101,3.2,4.2,86,0.00,,---,0.00,VWS V14.01,2013-01-21 04:40:00,
2013-01-20 22:43:00,60.1,56.2,30.08,East,94,3.2,4.2,87,0.00,,---,0.00,VWS V14.01,2013-01-21 04:43:00,
2013-01-20 22:45:00,59.8,55.6,30.07,ESE,103,2.2,5.2,86,0.00,,---,0.00,VWS V14.01,2013-01-21 04:45:00,
2013-01-20 22:48:00,60.1,56.2,30.08,East,98,4.2,6.2,87,0.00,,---,0.00,VWS V14.01,2013-01-21 04:48:00,
2013-01-20 22:50:00,59.8,55.6,30.07,ESE,103,1.2,4.2,86,0.00,,---,0.00,VWS V14.01,2013-01-21 04:50:00,
2013-01-20 22:53:00,59.9,56.0,30.08,East,97,2.2,4.2,87,0.00,,---,0.00,VWS V14.01,2013-01-21 04:53:00,
2013-01-20 22:55:00,59.6,55.4,30.07,ESE,103,1.2,3.2,86,0.00,,---,0.00,VWS V14.01,2013-01-21 04:55:00,
2013-01-20 22:58:00,59.8,56.2,30.08,East,98,4.2,4.2,88,0.00,,---,0.00,VWS V14.01,2013-01-21 04:58:00,
2013-01-20 23:00:00,59.8,56.2,30.08,East,98,3.2,5.2,88,0.00,,---,0.00,VWS V14.01,2013-01-21 05:00:00,
2013-01-20 23:01:00,59.8,56.2,30.08,East,98,2.2,6.2,88,0.00,,---,0.00,VWS V14.01,2013-01-21 05:01:00,
2013-01-20 23:03:00,59.8,56.2,30.08,East,98,2.2,2.2,88,0.00,,---,0.00,VWS V14.01,2013-01-21 05:03:00,
2013-01-20 23:05:00,59.5,55.6,30.08,ESE,103,1.2,5.2,87,0.00,,---,0.00,VWS V14.01,2013-01-21 05:05:00,
2013-01-20 23:08:00,59.8,56.2,30.08,East,98,1.2,4.2,88,0.00,,---,0.00,VWS V14.01,2013-01-21 05:08:00,
2013-01-20 23:10:00,59.5,55.6,30.08,ESE,103,1.2,4.2,87,0.00,,---,0.00,VWS V14.01,2013-01-21 05:10:00,
2013-01-20 23:13:00,59.6,56.0,30.08,East,98,4.2,5.2,88,0.00,,---,0.00,VWS V14.01,2013-01-21 05:13:00,
2013-01-20 23:15:00,59.5,55.6,30.08,ESE,103,1.2,3.2,87,0.00,,---,0.00,VWS V14.01,2013-01-21 05:15:00,
2013-01-20 23:18:00,59.6,56.0,30.08,East,98,3.2,5.2,88,0.00,,---,0.00,VWS V14.01,2013-01-21 05:18:00,
2013-01-20 23:20:00,59.5,55.6,30.08,ESE,103,2.2,2.2,87,0.00,,---,0.00,VWS V14.01,2013-01-21 05:20:00,
2013-01-20 23:23:00,59.6,55.7,30.08,East,101,3.2,5.2,87,0.00,,---,0.00,VWS V14.01,2013-01-21 05:23:00,
2013-01-20 23:25:00,59.5,55.6,30.08,ESE,103,3.2,4.2,87,0.00,,---,0.00,VWS V14.01,2013-01-21 05:25:00,
2013-01-20 23:28:00,59.8,55.9,30.08,ESE,112,3.2,5.2,87,0.00,,---,0.00,VWS V14.01,2013-01-21 05:28:00,
2013-01-20 23:30:00,59.3,55.4,30.08,ESE,103,1.2,3.2,87,0.00,,---,0.00,VWS V14.01,2013-01-21 05:30:00,
2013-01-20 23:33:00,59.8,55.9,30.08,East,101,3.2,4.2,87,0.00,,---,0.00,VWS V14.01,2013-01-21 05:33:00,
2013-01-20 23:35:00,59.5,55.6,30.08,ESE,103,1.2,4.2,87,0.00,,---,0.00,VWS V14.01,2013-01-21 05:35:00,
2013-01-20 23:38:00,59.8,55.6,30.08,East,101,2.2,4.2,86,0.00,,---,0.00,VWS V14.01,2013-01-21 05:38:00,
2013-01-20 23:40:00,59.5,56.0,30.08,ESE,103,1.2,3.2,88,0.00,,---,0.00,VWS V14.01,2013-01-21 05:40:00,
2013-01-20 23:43:00,59.8,55.6,30.08,ESE,103,3.2,5.2,86,0.00,,---,0.00,VWS V14.01,2013-01-21 05:43:00,
2013-01-20 23:45:00,59.3,55.8,30.08,ESE,103,1.2,1.2,88,0.00,,---,0.00,VWS V14.01,2013-01-21 05:45:00,
2013-01-20 23:48:00,59.8,55.6,30.08,ESE,103,2.2,3.2,86,0.00,,---,0.00,VWS V14.01,2013-01-21 05:48:00,
2013-01-20 23:50:00,59.3,55.8,30.08,ESE,103,1.2,2.2,88,0.00,,---,0.00,VWS V14.01,2013-01-21 05:50:00,
2013-01-20 23:53:00,59.6,55.4,30.08,ESE,103,1.2,2.2,86,0.00,,---,0.00,VWS V14.01,2013-01-21 05:53:00,
2013-01-20 23:55:00,59.2,55.7,30.08,ESE,103,1.2,3.2,88,0.00,,---,0.00,VWS V14.01,2013-01-21 05:55:00,
2013-01-20 23:58:00,59.6,55.4,30.08,ESE,103,1.2,4.2,86,0.00,,---,0.00,VWS V14.01,2013-01-21 05:58:00,